Time,TemperatureF,DewpointF,PressureIn,WindDirection,WindDirectionDegrees,WindSpeedMPH,WindSpeedGustMPH,Humidity,HourlyPrecipIn,Conditions,Clouds,dailyrainin,SolarRadiationWatts/m^2,SoftwareType,DateUTC
2013-01-01 00:02:00,47.0,18.0,30.21,SSW,209,9.0,13.0,31,-99.99,,,-99.99,0.000000,,2013-01-01 08:02:00,
2013-01-01 00:11:00,47.0,17.0,30.20,SSW,207,9.0,13.0,30,-99.99,,,-99.99,0.000000,,2013-01-01 08:11:00,
2013-01-01 00:22:00,47.0,18.0,30.20,SSW,212,10.0,14.0,31,-99.99,,,-99.99,0.000000,,2013-01-01 08:22:00,
2013-01-01 00:32:00,47.0,18.0,30.20,SW,218,10.0,15.0,31,-99.99,,,-99.99,0.000000,,2013-01-01 08:32:00,
2013-01-01 00:42:00,47.0,18.0,30.20,SW,218,10.0,15.0,31,-99.99,,,-99.99,0.000000,,2013-01-01 08:42:00,
2013-01-01 00:53:00,47.0,19.0,30.20,SW,225,9.0,14.0,32,-99.99,,,-99.99,0.000000,,2013-01-01 08:53:00,
2013-01-01 01:02:00,47.0,19.0,30.20,SW,225,9.0,14.0,32,-99.99,,,-99.99,0.000000,,2013-01-01 09:02:00,
2013-01-01 01:11:00,47.0,18.0,30.20,SW,226,9.0,15.0,32,-99.99,,,-99.99,0.000000,,2013-01-01 09:11:00,
2013-01-01 01:32:00,47.0,19.0,30.20,SW,219,9.0,12.0,33,-99.99,,,-99.99,0.000000,,2013-01-01 09:32:00,
2013-01-01 01:42:00,47.0,19.0,30.20,SW,226,10.0,15.0,33,-99.99,,,-99.99,0.000000,,2013-01-01 09:42:00,
2013-01-01 01:52:00,47.0,18.0,30.21,SW,222,10.0,15.0,32,-99.99,,,-99.99,0.000000,,2013-01-01 09:52:00,
2013-01-01 10:03:00,53.0,23.0,30.26,ENE,72,1.0,3.0,31,-99.99,,,-99.99,200.000000,,2013-01-01 18:03:00,
2013-01-01 10:12:00,51.0,23.0,30.26,North,4,4.0,6.0,34,-99.99,,,-99.99,160.000000,,2013-01-01 18:12:00,
2013-01-01 10:22:00,50.0,24.0,30.26,NNW,348,5.0,7.0,36,-99.99,,,-99.99,180.000000,,2013-01-01 18:22:00,
2013-01-01 10:33:00,50.0,25.0,30.26,North,11,3.0,5.0,37,-99.99,,,-99.99,140.000000,,2013-01-01 18:33:00,
2013-01-01 10:42:00,50.0,25.0,30.26,North,11,3.0,5.0,37,-99.99,,,-99.99,140.000000,,2013-01-01 18:42:00,
2013-01-01 10:52:00,50.0,24.0,30.26,NNE,28,1.0,3.0,36,-99.99,,,-99.99,170.000000,,2013-01-01 18:52:00,
2013-01-01 11:02:00,51.0,23.0,30.26,North,359,3.0,4.0,34,-99.99,,,-99.99,450.000000,,2013-01-01 19:02:00,
2013-01-01 11:12:00,53.0,24.0,30.26,NE,35,1.0,3.0,32,-99.99,,,-99.99,560.000000,,2013-01-01 19:12:00,
2013-01-01 11:22:00,54.0,23.0,30.25,SE,140,1.0,4.0,30,-99.99,,,-99.99,570.000000,,2013-01-01 19:22:00,
2013-01-01 11:32:00,55.0,21.0,30.25,SE,141,1.0,3.0,26,-99.99,,,-99.99,640.000000,,2013-01-01 19:32:00,
2013-01-01 11:42:00,55.0,19.0,30.25,ENE,77,3.0,7.0,24,-99.99,,,-99.99,710.000000,,2013-01-01 19:42:00,
2013-01-01 11:52:00,54.0,18.0,30.23,ENE,70,5.0,9.0,24,-99.99,,,-99.99,550.000000,,2013-01-01 19:52:00,
2013-01-01 12:02:00,54.0,18.0,30.23,ENE,70,5.0,9.0,24,-99.99,,,-99.99,550.000000,,2013-01-01 20:02:00,
2013-01-01 12:12:00,54.0,18.0,30.23,ENE,63,6.0,10.0,24,-99.99,,,-99.99,700.000000,,2013-01-01 20:12:00,
2013-01-01 12:22:00,55.0,19.0,30.22,ENE,68,5.0,10.0,24,-99.99,,,-99.99,620.000000,,2013-01-01 20:22:00,
2013-01-01 12:32:00,54.0,18.0,30.22,East,79,4.0,9.0,24,-99.99,,,-99.99,470.000000,,2013-01-01 20:32:00,
2013-01-01 12:42:00,54.0,17.0,30.21,NE,55,4.0,8.0,23,-99.99,,,-99.99,230.000000,,2013-01-01 20:42:00,
2013-01-01 12:52:00,54.0,15.0,30.20,ENE,64,5.0,11.0,21,-99.99,,,-99.99,210.000000,,2013-01-01 20:52:00,
2013-01-01 13:02:00,54.0,14.0,30.20,ENE,57,4.0,10.0,20,-99.99,,,-99.99,440.000000,,2013-01-01 21:02:00,
2013-01-01 13:12:00,55.0,14.0,30.20,East,89,3.0,9.0,19,-99.99,,,-99.99,660.000000,,2013-01-01 21:12:00,
2013-01-01 13:22:00,56.0,13.0,30.20,ENE,73,3.0,8.0,18,-99.99,,,-99.99,600.000000,,2013-01-01 21:22:00,
2013-01-01 13:32:00,55.0,13.0,30.20,ESE,102,3.0,7.0,18,-99.99,,,-99.99,580.000000,,2013-01-01 21:32:00,
2013-01-01 13:42:00,55.0,13.0,30.20,ESE,102,3.0,7.0,18,-99.99,,,-99.99,580.000000,,2013-01-01 21:42:00,
2013-01-01 13:52:00,55.0,12.0,30.20,East,87,3.0,7.0,18,-99.99,,,-99.99,230.000000,,2013-01-01 21:52:00,
2013-01-01 14:02:00,55.0,12.0,30.20,East,87,3.0,7.0,18,-99.99,,,-99.99,230.000000,,2013-01-01 22:02:00,
2013-01-01 14:12:00,56.0,11.0,30.19,ESE,106,3.0,5.0,17,-99.99,,,-99.99,470.000000,,2013-01-01 22:12:00,
2013-01-01 14:22:00,56.0,11.0,30.19,East,92,1.0,5.0,16,-99.99,,,-99.99,490.000000,,2013-01-01 22:22:00,
2013-01-01 14:32:00,56.0,11.0,30.19,East,81,2.0,8.0,16,-99.99,,,-99.99,370.000000,,2013-01-01 22:32:00,
2013-01-01 14:42:00,56.0,10.0,30.19,East,89,3.0,6.0,16,-99.99,,,-99.99,340.000000,,2013-01-01 22:42:00,
2013-01-01 14:52:00,55.0,10.0,30.18,East,79,2.0,7.0,16,-99.99,,,-99.99,190.000000,,2013-01-01 22:52:00,
2013-01-01 15:02:00,55.0,9.0,30.18,East,97,3.0,6.0,16,-99.99,,,-99.99,120.000000,,2013-01-01 23:02:00,
2013-01-01 15:12:00,55.0,9.0,30.18,East,97,3.0,6.0,16,-99.99,,,-99.99,120.000000,,2013-01-01 23:12:00,
2013-01-01 15:22:00,55.0,11.0,30.18,ENE,75,2.0,7.0,17,-99.99,,,-99.99,100.000000,,2013-01-01 23:22:00,
2013-01-01 15:32:00,54.0,11.0,30.18,East,98,3.0,6.0,17,-99.99,,,-99.99,130.000000,,2013-01-01 23:32:00,
2013-01-01 15:42:00,54.0,11.0,30.18,East,98,3.0,6.0,17,-99.99,,,-99.99,130.000000,,2013-01-01 23:42:00,
2013-01-01 15:50:00,55.0,11.0,30.17,ENE,74,1.0,3.0,17,-99.99,,,-99.99,40.000000,,2013-01-01 23:50:00,
2013-01-01 15:52:00,55.0,10.0,30.18,East,86,3.0,7.0,16,-99.99,,,-99.99,320.000000,,2013-01-01 23:52:00,
2013-01-01 16:02:00,55.0,10.0,30.17,NE,50,4.0,8.0,16,-99.99,,,-99.99,120.000000,,2013-01-02 00:02:00,
2013-01-01 16:12:00,56.0,10.0,30.17,ENE,66,3.0,5.0,16,-99.99,,,-99.99,170.000000,,2013-01-02 00:12:00,
2013-01-01 16:22:00,55.0,11.0,30.17,ENE,74,1.0,3.0,17,-99.99,,,-99.99,40.000000,,2013-01-02 00:22:00,
2013-01-01 16:32:00,55.0,11.0,30.17,ENE,74,1.0,3.0,17,-99.99,,,-99.99,40.000000,,2013-01-02 00:32:00,
2013-01-01 16:42:00,55.0,11.0,30.17,ENE,74,1.0,3.0,17,-99.99,,,-99.99,40.000000,,2013-01-02 00:42:00,
2013-01-01 17:22:00,53.0,14.0,30.16,ESE,122,0.0,2.0,21,-99.99,,,-99.99,0.000000,,2013-01-02 01:22:00,
2013-01-01 17:32:00,51.0,13.0,30.16,SE,146,2.0,4.0,21,-99.99,,,-99.99,0.000000,,2013-01-02 01:32:00,
2013-01-01 17:42:00,51.0,13.0,30.16,SE,146,2.0,4.0,21,-99.99,,,-99.99,0.000000,,2013-01-02 01:42:00,
2013-01-01 17:52:00,51.0,13.0,30.16,South,172,1.0,3.0,21,-99.99,,,-99.99,0.000000,,2013-01-02 01:52:00,
2013-01-01 18:02:00,51.0,12.0,30.16,South,182,2.0,5.0,20,-99.99,,,-99.99,0.000000,,2013-01-02 02:02:00,
2013-01-01 18:12:00,52.0,12.0,30.16,South,181,3.0,6.0,20,-99.99,,,-99.99,0.000000,,2013-01-02 02:12:00,
2013-01-01 18:20:00,52.0,11.0,30.17,SSW,207,5.0,8.0,19,-99.99,,,-99.99,0.000000,,2013-01-02 02:20:00,
2013-01-01 18:22:00,52.0,11.0,30.16,South,187,4.0,6.0,19,-99.99,,,-99.99,0.000000,,2013-01-02 02:22:00,
2013-01-01 18:32:00,52.0,11.0,30.17,SSW,208,5.0,7.0,19,-99.99,,,-99.99,0.000000,,2013-01-02 02:32:00,
2013-01-01 18:42:00,52.0,11.0,30.17,SSW,208,5.0,7.0,19,-99.99,,,-99.99,0.000000,,2013-01-02 02:42:00,
2013-01-01 18:52:00,52.0,11.0,30.17,SSW,208,5.0,7.0,19,-99.99,,,-99.99,0.000000,,2013-01-02 02:52:00,
2013-01-01 19:02:00,52.0,11.0,30.17,SSW,207,5.0,8.0,19,-99.99,,,-99.99,0.000000,,2013-01-02 03:02:00,
2013-01-01 19:11:00,52.0,11.0,30.17,SSW,207,5.0,8.0,19,-99.99,,,-99.99,0.000000,,2013-01-02 03:11:00,
2013-01-01 19:32:00,52.0,11.0,30.18,South,189,6.0,8.0,19,-99.99,,,-99.99,0.000000,,2013-01-02 03:32:00,
2013-01-01 19:42:00,51.0,12.0,30.19,South,190,5.0,6.0,20,-99.99,,,-99.99,0.000000,,2013-01-02 03:42:00,
2013-01-01 19:52:00,51.0,12.0,30.19,SSW,195,5.0,6.0,20,-99.99,,,-99.99,0.000000,,2013-01-02 03:52:00,
2013-01-01 20:00:00,52.0,12.0,30.20,SSW,211,6.0,8.0,20,-99.99,,,-99.99,0.000000,,2013-01-02 04:00:00,
2013-01-01 20:02:00,51.0,12.0,30.19,SSW,198,6.0,9.0,20,-99.99,,,-99.99,0.000000,,2013-01-02 04:02:00,
2013-01-01 20:12:00,52.0,12.0,30.20,SSW,197,6.0,9.0,20,-99.99,,,-99.99,0.000000,,2013-01-02 04:12:00,
2013-01-01 20:22:00,52.0,12.0,30.20,SSW,206,6.0,8.0,20,-99.99,,,-99.99,0.000000,,2013-01-02 04:22:00,
2013-01-01 20:32:00,52.0,12.0,30.20,SSW,211,6.0,8.0,20,-99.99,,,-99.99,0.000000,,2013-01-02 04:32:00,
2013-01-01 20:42:00,52.0,12.0,30.20,SSW,211,6.0,8.0,20,-99.99,,,-99.99,0.000000,,2013-01-02 04:42:00,
2013-01-01 20:52:00,52.0,12.0,30.20,SSW,211,6.0,8.0,20,-99.99,,,-99.99,0.000000,,2013-01-02 04:52:00,
2013-01-01 21:22:00,51.0,14.0,30.20,SSW,204,6.0,9.0,22,-99.99,,,-99.99,0.000000,,2013-01-02 05:22:00,
2013-01-01 21:32:00,50.0,13.0,30.20,SSW,203,8.0,13.0,22,-99.99,,,-99.99,0.000000,,2013-01-02 05:32:00,
2013-01-01 21:42:00,50.0,13.0,30.20,SSW,211,10.0,13.0,22,-99.99,,,-99.99,0.000000,,2013-01-02 05:42:00,
2013-01-01 21:52:00,50.0,13.0,30.21,SSW,210,10.0,13.0,22,-99.99,,,-99.99,0.000000,,2013-01-02 05:52:00,
2013-01-01 22:02:00,50.0,13.0,30.21,SW,215,10.0,13.0,22,-99.99,,,-99.99,0.000000,,2013-01-02 06:02:00,
2013-01-01 22:11:00,50.0,13.0,30.21,SW,215,10.0,13.0,22,-99.99,,,-99.99,0.000000,,2013-01-02 06:11:00,
2013-01-01 22:20:00,49.0,13.0,30.21,SSW,202,11.0,15.0,23,-99.99,,,-99.99,0.000000,,2013-01-02 06:20:00,
2013-01-01 22:22:00,50.0,12.0,30.21,SW,217,9.0,13.0,22,-99.99,,,-99.99,0.000000,,2013-01-02 06:22:00,
2013-01-01 22:32:00,49.0,13.0,30.21,SW,214,10.0,15.0,23,-99.99,,,-99.99,0.000000,,2013-01-02 06:32:00,
2013-01-01 22:42:00,49.0,13.0,30.21,SW,214,10.0,15.0,23,-99.99,,,-99.99,0.000000,,2013-01-02 06:42:00,
2013-01-01 22:52:00,49.0,13.0,30.21,SSW,202,11.0,15.0,23,-99.99,,,-99.99,0.000000,,2013-01-02 06:52:00,
2013-01-01 23:02:00,49.0,13.0,30.21,SSW,202,11.0,15.0,23,-99.99,,,-99.99,0.000000,,2013-01-02 07:02:00,
2013-01-01 23:12:00,49.0,13.0,30.21,SSW,202,11.0,15.0,23,-99.99,,,-99.99,0.000000,,2013-01-02 07:12:00,